sat.trackr.live / text

‹ back to catalog

STARLINK-36810

NORAD 67898 · 2026-035V

PAYLOAD ACTIVE UNKNOWN

§ Identity

Operator
Country
US
Launch date
2026-02-21
Launch site
AFWTR
Launch vehicle
Mass (kg)
RCS (m²)

Purposes: comms

External: N2YO · Heavens-Above · Gunter

§ Orbital elements

Epoch: 2026-05-25T01:36:13.328352Z

Period
93.91 min
Inclination
97.2841°
Eccentricity
0.0001578
Mean motion
15.33453583 rev/d
Perigee alt
464.4 km
Apogee alt
466.6 km
Semi-major
6,843.7 km
B*
4.5907e-4
RAAN
78.6050°
Arg perigee
96.1978°
Mean anomaly
263.9444°
Rev number
1,569

§ Raw data

STARLINK-368101 67898U 26035V   26145.06682093  .00014779  00000+0  45907-3 0  99912 67898  97.2841  78.6050 0001578  96.1978 263.9444 15.33453583 15691

JSON: /api/v1/satellites/67898 · /tle

For live sub-satellite position, see the globe view (requires WebGL).

§ Visibility from observer

Set your observer location to see the next 7 days of passes ≥ 10°. The values pass through the URL so the page stays shareable.

No JS? Fill the form by hand. The geolocation button needs JavaScript.